Regional Weather Roundup
Issued by NWS Kansas City/Pleasant Hill, MO

Home | Current Version | Previous Version | Graphics & Text | Print | Product List | Glossary Off
Versions: 1 2 3 4 5 6 7 8 9 10 11 12 13 14 15 16 17 18 19 20 21 22 23 24 25 26 27

000
ASUS43 KEAX 271910
RWREAX

WEATHER ROUNDUP FOR EASTERN KANSAS AND NORTHWEST MISSOURI
NATIONAL WEATHER SERVICE KANSAS CITY/PLEASANT HILL MO
200 PM CDT SAT AUG 27 2016

KSZ040-057-103>105-MOZ028-029-037-043-272000-
...KANSAS CITY METROPOLITAN AREA...

CITY           SKY/WX    TMP DP  RH WIND       PRES   REMARKS
K.C. INTL      PTSUNNY   84  69  60 VRB5      30.03S
K.C. DOWNTOWN  PTSUNNY   88  72  58 S7        30.01S HX  94
LEES SUMMIT    MOSUNNY   84  71  65 VRB3      30.03S
OLATHE - IXD   MOSUNNY   84  73  69 S8        30.03S HX  90
OLATHE - OJC   MOSUNNY   84  73  69 S8        30.03S HX  90
LAWRENCE       MOSUNNY   85  72  65 VRB5      30.02S HX  91

$$

MOZ001>008-011>017-020>025-030>033-038>040-044>046-053-054-272000-
...NORTHERN AND CENTRAL MISSOURI...

CITY           SKY/WX    TMP DP  RH WIND       PRES   REMARKS
ST. JOSEPH     SUNNY     82  69  64 VRB5      30.03S
MOSBY          PTCLDY    86  68  54 CALM      30.02S
WHITEMAN AFB   PTSUNNY   86  73  65 SW8       30.02S HX  93
CLINTON        MOSUNNY   86  73  66 SW3       30.04S HX  93
SEDALIA        SUNNY     88  70  55 SW9       30.05S HX  93
WARSAW         NOT AVBL
CHILLICOTHE    NOT AVBL
KIRKSVILLE     PTSUNNY   84  71  65 S12       30.04S

$$

MOZ041-047>049-056>058-063>065-088>090-097-272000-
...EASTERN AND SOUTHERN MISSOURI...

CITY           SKY/WX    TMP DP  RH WIND       PRES   REMARKS
ST. LOUIS INTL PTSUNNY   92  70  48 SW3       30.04F HX  97
SPIRIT OF STL  PTSUNNY   88  73  61 S3        30.03S HX  95
COLUMBIA       CLOUDY    86  72  62 S6        30.05S HX  92
JEFFERSON CITY MOSUNNY   86  71  60 VRB6      30.03S HX  91
ROLLA          CLOUDY    85  73  67 S9        30.05F HX  91
OSAGE BEACH    CLOUDY    85  73  67 CALM      30.05S HX  91
SPRINGFIELD    CLOUDY    86  68  54 SW8       30.06S
BRANSON        CLOUDY    86  72  62 CALM      30.08F HX  92
JOPLIN         SUNNY     86  70  58 SW6       30.04F HX  90
WEST PLAINS    CLOUDY    82  71  69 SE10      30.10S

$$

IAZ060-094-KSZ022-034>040-054-083-096-NEZ052-066-093-272000-
...KANSAS...SOUTHEAST NEBRASKA AND IOWA...

CITY           SKY/WX    TMP DP  RH WIND       PRES   REMARKS
TOPEKA         PTSUNNY   83  71  67 S5        30.02S
MANHATTAN      MOSUNNY   82  69  64 CALM      30.02F
EMPORIA        MOSUNNY   83  71  67 VRB5      30.03S
CHANUTE        MOSUNNY   88  74  63 S10       30.02F HX  96
WICHITA        MOSUNNY   87  71  58 SE8       30.02S HX  93
OMAHA          MOSUNNY   80  63  55 S6        30.01S
LINCOLN        SUNNY     83  64  52 W7        30.02S
FALLS CITY     SUNNY     81  69  67 CALM      30.01F
LAMONI         PTSUNNY   79  70  74 W6        30.03S
DES MOINES     CLOUDY    76  68  76 W5        30.03R

$$





USA.gov is the U.S. government's official web portal to all federal, state and local government web resources and services.